Location: Unspecified
(0.0000°N, 0.0000°E)
Time: 19:59:08
(UTC+00:00)

Kosmos-1506 - Visible Passes

Search period start: 15 May 2026 00:00
Search period end: 25 May 2026 00:00
Orbit: 944 x 1009 km, 82.9° (Epoch: 14 May)

Date Brightness Start Highest point End Pass type
(mag) Time Alt. Az. Time Alt. Az. Time Alt. Az.
15 May 7.4 03:15:46 15° SE 03:19:30 25° E 03:24:24 10° NE visible
15 May 6.4 05:00:32 14° SW 05:04:34 26° W 05:09:34 10° NNW visible
16 May 6.0 03:42:26 34° SSE 03:45:01 55° E 03:51:02 10° NNE visible
16 May 7.2 05:28:53 10° W 05:30:02 11° W 05:31:12 10° WNW visible
17 May 5.3 04:08:59 51° SSW 04:10:31 69° W 04:16:39 10° N visible
18 May 7.5 02:50:40 20° E 02:50:54 20° E 02:55:16 10° NE visible
18 May 6.1 04:35:24 31° W 04:35:59 31° W 04:41:20 10° NNW visible
19 May 6.4 03:17:00 44° ENE 03:17:00 44° ENE 03:22:14 10° NNE visible
19 May 7.1 05:01:43 13° W 05:01:43 13° W 05:04:18 10° WNW visible
20 May 5.7 03:43:14 58° N 03:43:14 58° N 03:48:05 10° N visible
21 May 8.0 02:24:40 13° ENE 02:24:40 13° ENE 02:25:58 10° ENE visible
21 May 6.4 04:09:24 30° NW 04:09:24 30° NW 04:13:01 10° NNW visible
22 May 7.4 02:50:46 24° NE 02:50:46 24° NE 02:53:23 10° NNE visible
22 May 7.3 04:35:29 13° WNW 04:35:29 13° WNW 04:36:37 10° NW visible
23 May 7.0 03:16:49 28° N 03:16:49 28° N 03:19:27 10° N visible
24 May 7.2 03:42:49 20° NNW 03:42:49 20° NNW 03:44:37 10° NNW visible
